Location: Unspecified
(0.0000°N, 0.0000°E)
Time: 01:04:43
(UTC+00:00)

A-11 Canister half - Pass Details

Date: 14 February 2023
Orbit: 1526 x 1682 km, 47.3° (Epoch: 29 March)

Event Time Altitude Azimuth Distance (km) Brightness Sun altitude
Rises 11:23:19 0° 323° (NW) 4,738 11.4 71.9°
Reaches altitude 10° 11:26:21 10° 325° (NW) 3,774 11.0 72.4°
Maximum altitude 11:35:59 79° 51° (NE) 1,647 10.9 73.9°
Drops below altitude 10° 11:45:59 10° 136° (SE) 3,905 11.5 75.2°
Sets 11:49:10 0° 137° (SE) 4,908 11.8 75.6°
